| time (UTC) | temp F | wind direction | speed knots | gust knots | rain 1hr in | rain 24hr in | rain mn in | humidity % | barometer mb |
| 20260507151549 | 58 | 54 | 1.7 | 6.1 | 0.00 | 0.00 | 0.00 | 68 | 1009.2 |
| 20260507150049 | 58 | 52 | 0.9 | 6.1 | 0.00 | 0.00 | 0.00 | 68 | 1009.2 |
| 20260507144546 | 58 | 72 | 1.7 | 6.1 | 0.00 | 0.00 | 0.00 | 67 | 1009.2 |
| 20260507143047 | 57 | 138 | 2.6 | 5.2 | 0.00 | 0.00 | 0.00 | 68 | 1009.3 |
| 20260507141544 | 57 | 104 | 1.7 | 5.2 | 0.00 | 0.00 | 0.00 | 69 | 1009.6 |
| 20260507140045 | 57 | 105 | 2.6 | 7.0 | 0.00 | 0.00 | 0.00 | 69 | 1009.6 |
| 20260507134541 | 58 | 124 | 0.9 | 6.1 | 0.00 | 0.00 | 0.00 | 68 | 1009.6 |
| 20260507133047 | 58 | 139 | 2.6 | 6.1 | 0.00 | 0.00 | 0.00 | 66 | 1009.6 |
| 20260507131541 | 59 | 128 | 0.9 | 7.0 | 0.00 | 0.00 | 0.00 | 66 | 1009.7 |
| 20260507130042 | 58 | 131 | 1.7 | 5.2 | 0.00 | 0.00 | 0.00 | 66 | 1009.8 |
| 20260507124540 | 58 | 94 | 1.7 | 4.3 | 0.00 | 0.00 | 0.00 | 66 | 1009.7 |
| 20260507123041 | 57 | 127 | 0.9 | 7.0 | 0.00 | 0.00 | 0.00 | 66 | 1009.8 |
| 20260507121536 | 58 | 123 | 0.9 | 6.1 | 0.00 | 0.00 | 0.00 | 65 | 1009.8 |
| 20260507120035 | 59 | 102 | 1.7 | 9.6 | 0.00 | 0.00 | 0.00 | 64 | 1009.8 |
| 20260507114554 | 60 | 129 | 1.7 | 7.0 | 0.00 | 0.00 | 0.00 | 62 | 1009.9 |
| 20260507113057 | 60 | 72 | 2.6 | 8.7 | 0.00 | 0.00 | 0.00 | 60 | 1009.7 |
| 20260507111537 | 60 | 105 | 3.5 | 8.7 | 0.00 | 0.00 | 0.00 | 57 | 1009.8 |
| 20260507110028 | 59 | 77 | 1.7 | 7.0 | 0.00 | 0.00 | 0.00 | 57 | 1010.0 |
| 20260507104537 | 59 | 143 | 1.7 | 6.1 | 0.00 | 0.00 | 0.00 | 59 | 1010.1 |
| 20260507103025 | 58 | 100 | 3.5 | 7.8 | 0.00 | 0.00 | 0.00 | 61 | 1010.2 |
| 20260507101520 | 57 | 68 | 1.7 | 4.3 | 0.00 | 0.00 | 0.00 | 68 | 1010.3 |
| 20260507100016 | 56 | 95 | 0.0 | 0.0 | 0.00 | 0.00 | 0.00 | 71 | 1010.4 |
| 20260507094511 | 54 | 82 | 0.0 | 0.0 | 0.00 | 0.00 | 0.00 | 75 | 1010.3 |
| 20260507093007 | 52 | 114 | 0.0 | 0.0 | 0.00 | 0.00 | 0.00 | 76 | 1010.2 |
| 20260507091504 | 51 | 89 | 0.0 | 2.6 | 0.00 | 0.00 | 0.00 | 78 | 1010.5 |
| 20260507090100 | 50 | 117 | 0.0 | 0.9 | 0.00 | 0.00 | 0.00 | 78 | 1010.6 |
| 20260507084609 | 49 | 115 | 0.0 | 0.9 | 0.00 | 0.00 | 0.00 | 80 | 1010.5 |
| 20260507083055 | 48 | 77 | 0.0 | 0.9 | 0.00 | 0.00 | 0.00 | 82 | 1010.7 |
| 20260507081559 | 48 | 77 | 0.0 | 0.9 | 0.00 | 0.00 | 0.00 | 82 | 1010.7 |
| 20260507080051 | 47 | 107 | 0.0 | 0.9 | 0.00 | 0.00 | 0.00 | 84 | 1010.6 |
| 20260507074556 | 47 | 125 | 0.0 | 0.0 | 0.00 | 0.00 | 0.00 | 85 | 1010.5 |
| 20260507073053 | 46 | 124 | 0.0 | 0.0 | 0.00 | 0.00 | 0.00 | 85 | 1010.6 |
| 20260507071548 | 46 | 129 | 0.0 | 0.9 | 0.00 | 0.00 | 0.00 | 85 | 1010.5 |
| 20260507070048 | 46 | 134 | 0.0 | 0.0 | 0.00 | 0.00 | 0.00 | 86 | 1010.3 |
| 20260507064550 | 45 | 133 | 0.0 | 0.0 | 0.00 | 0.00 | 0.00 | 86 | 1010.2 |
| 20260507063046 | 45 | 133 | 0.0 | 0.0 | 0.00 | 0.00 | 0.00 | 87 | 1010.1 |
| 20260507061545 | 45 | 132 | 0.0 | 0.0 | 0.00 | 0.00 | 0.00 | 86 | 1010.2 |
| 20260507060045 | 45 | 148 | 0.0 | 0.0 | 0.00 | 0.00 | 0.00 | 86 | 1010.2 |
| 20260507054543 | 45 | 167 | 0.0 | 0.0 | 0.00 | 0.00 | 0.00 | 86 | 1010.1 |
| 20260507053043 | 45 | 167 | 0.0 | 0.0 | 0.00 | 0.00 | 0.00 | 86 | 1010.1 |
| 20260507051543 | 45 | 167 | 0.0 | 0.0 | 0.00 | 0.00 | 0.00 | 86 | 1010.0 |
| 20260507050043 | 45 | 167 | 0.0 | 0.0 | 0.00 | 0.00 | 0.00 | 86 | 1010.1 |
| 20260507044548 | 45 | 167 | 0.0 | 0.0 | 0.00 | 0.00 | 0.00 | 85 | 1010.0 |
| 20260507043055 | 45 | 167 | 0.0 | 0.0 | 0.00 | 0.00 | 0.00 | 85 | 1009.9 |
| 20260507041540 | 45 | 167 | 0.0 | 0.0 | 0.00 | 0.00 | 0.00 | 85 | 1009.9 |
| 20260507040041 | 45 | 167 | 0.0 | 0.0 | 0.00 | 0.00 | 0.00 | 85 | 1009.9 |
| 20260507034538 | 45 | 167 | 0.0 | 0.0 | 0.00 | 0.00 | 0.00 | 85 | 1009.9 |
| 20260507033038 | 45 | 167 | 0.0 | 0.0 | 0.00 | 0.00 | 0.00 | 84 | 1010.0 |
| 20260507031542 | 45 | 167 | 0.0 | 0.0 | 0.00 | 0.00 | 0.00 | 84 | 1010.0 |
| 20260507030036 | 45 | 169 | 0.0 | 0.0 | 0.00 | 0.00 | 0.00 | 84 | 1010.1 |
| 20260507024534 | 45 | 169 | 0.0 | 0.0 | 0.00 | 0.00 | 0.00 | 84 | 1010.0 |
| 20260507023034 | 45 | 141 | 0.0 | 0.0 | 0.00 | 0.00 | 0.00 | 84 | 1010.1 |
| 20260507021534 | 46 | 89 | 0.0 | 0.0 | 0.00 | 0.00 | 0.00 | 83 | 1010.0 |
| 20260507020045 | 46 | 56 | 0.0 | 0.0 | 0.00 | 0.00 | 0.00 | 83 | 1010.0 |
| 20260507014533 | 46 | 56 | 0.0 | 0.0 | 0.00 | 0.00 | 0.00 | 82 | 1009.9 |
| 20260507013028 | 46 | 56 | 0.0 | 0.0 | 0.00 | 0.00 | 0.00 | 82 | 1009.9 |
| 20260507011539 | 47 | 56 | 0.0 | 0.0 | 0.00 | 0.00 | 0.00 | 81 | 1010.0 |
| 20260507010029 | 47 | 56 | 0.0 | 0.0 | 0.00 | 0.00 | 0.00 | 81 | 1010.1 |
| 20260507004523 | 47 | 274 | 0.0 | 0.0 | 0.00 | 0.00 | 0.00 | 80 | 1010.0 |
| 20260507003022 | 47 | 232 | 0.0 | 0.9 | 0.00 | 0.00 | 0.00 | 79 | 1009.9 |
| 20260507001545 | 47 | 145 | 0.0 | 0.0 | 0.00 | 0.00 | 0.00 | 79 | 1010.1 |
| 20260507000023 | 48 | 147 | 0.0 | 0.0 | 0.00 | 0.00 | 0.00 | 78 | 1010.2 |
| 20260506234517 | 48 | 153 | 0.0 | 1.7 | 0.00 | 0.00 | 0.00 | 77 | 1010.1 |
| 20260506233017 | 49 | 172 | 0.0 | 0.0 | 0.00 | 0.00 | 0.00 | 76 | 1010.0 |
| 20260506231513 | 49 | 179 | 0.0 | 0.9 | 0.00 | 0.00 | 0.00 | 76 | 1010.0 |
| 20260506230014 | 49 | 86 | 0.0 | 2.6 | 0.00 | 0.00 | 0.00 | 75 | 1009.9 |
| 20260506224509 | 49 | 245 | 0.0 | 1.7 | 0.00 | 0.00 | 0.00 | 75 | 1009.8 |
| 20260506223008 | 49 | 231 | 0.0 | 0.0 | 0.00 | 0.00 | 0.00 | 75 | 1009.8 |
| 20260506221509 | 49 | 176 | 0.0 | 0.0 | 0.00 | 0.00 | 0.00 | 75 | 1009.8 |
| 20260506220008 | 50 | 240 | 0.0 | 0.0 | 0.00 | 0.00 | 0.00 | 74 | 1009.8 |
| 20260506214507 | 50 | 189 | 0.0 | 0.0 | 0.00 | 0.00 | 0.00 | 73 | 1009.7 |
| 20260506213106 | 50 | 167 | 0.0 | 0.0 | 0.00 | 0.00 | 0.00 | 73 | 1009.6 |
| 20260506211506 | 50 | 238 | 0.0 | 0.0 | 0.00 | 0.00 | 0.00 | 72 | 1009.6 |
| 20260506210008 | 50 | 239 | 0.0 | 0.0 | 0.00 | 0.00 | 0.00 | 72 | 1009.4 |
| 20260506204504 | 50 | 262 | 0.0 | 0.0 | 0.00 | 0.00 | 0.00 | 72 | 1009.4 |
| 20260506203008 | 50 | 234 | 0.0 | 0.0 | 0.00 | 0.00 | 0.00 | 70 | 1009.3 |
| 20260506201504 | 50 | 260 | 0.0 | 0.0 | 0.00 | 0.00 | 0.00 | 68 | 1009.0 |
| 20260506200003 | 51 | 271 | 0.0 | 0.0 | 0.00 | 0.00 | 0.00 | 69 | 1008.8 |
| 20260506194505 | 51 | 245 | 0.0 | 0.0 | 0.00 | 0.00 | 0.00 | 67 | 1008.7 |
| 20260506193002 | 52 | 242 | 0.0 | 0.0 | 0.00 | 0.00 | 0.00 | 68 | 1008.7 |
| 20260506191502 | 52 | 243 | 0.0 | 0.0 | 0.00 | 0.00 | 0.00 | 68 | 1008.6 |
| 20260506190001 | 53 | 232 | 0.0 | 0.0 | 0.00 | 0.00 | 0.00 | 67 | 1008.6 |
| 20260506184600 | 54 | 260 | 0.0 | 0.0 | 0.00 | 0.00 | 0.00 | 64 | 1008.5 |
| 20260506183108 | 55 | 122 | 0.0 | 0.0 | 0.00 | 0.00 | 0.00 | 62 | 1008.4 |
| 20260506181604 | 56 | 266 | 0.0 | 0.0 | 0.00 | 0.00 | 0.00 | 58 | 1008.3 |
| 20260506180059 | 56 | 1 | 0.0 | 1.7 | 0.00 | 0.00 | 0.00 | 57 | 1008.2 |
| 20260506174558 | 56 | 19 | 0.0 | 3.5 | 0.00 | 0.00 | 0.00 | 57 | 1008.1 |
| 20260506173109 | 56 | 80 | 0.0 | 1.7 | 0.00 | 0.00 | 0.00 | 56 | 1008.1 |
| 20260506171557 | 57 | 70 | 0.0 | 0.9 | 0.00 | 0.00 | 0.00 | 55 | 1008.1 |
| 20260506170107 | 57 | 139 | 0.0 | 0.9 | 0.00 | 0.00 | 0.00 | 56 | 1008.1 |
| 20260506164624 | 57 | 326 | 0.0 | 1.7 | 0.00 | 0.00 | 0.00 | 55 | 1008.1 |
| 20260506163104 | 57 | 77 | 0.0 | 2.6 | 0.00 | 0.00 | 0.00 | 56 | 1008.1 |
| 20260506161556 | 57 | 82 | 0.0 | 0.0 | 0.00 | 0.00 | 0.00 | 57 | 1008.1 |
| 20260506160105 | 58 | 55 | 0.0 | 2.6 | 0.00 | 0.00 | 0.00 | 57 | 1008.1 |
| 20260506154556 | 58 | 70 | 0.0 | 1.7 | 0.00 | 0.00 | 0.00 | 56 | 1008.1 |
| 20260506153052 | 58 | 311 | 0.0 | 0.9 | 0.00 | 0.00 | 0.00 | 56 | 1008.1 |